Weather in Ivanovo

Russia / Tula Oblast     53°55′05″N   36°09′47″E
temp.,
°C
wind,
m/s
gust,
m/s
humid.,
%
clouds,
%
prec.,
mm/h
press.,
hPa
HPBL,
m
4 august, wed
wed400:00+17wsw236711 0.0 101459
03:00+13w238130 0.0 101555
06:00+13wnw22823 0.0 101649
09:00+19w235932 0.0 1016582
12:00+23w344458 0.0 10162159
15:00+20wsw2556100 0.0 1016235
18:00+20wsw256183 0.0 1017280
21:00+17w226960 0.0 101721
5 august, thu
thu500:00+14wsw12800 0.0 101811
03:00+13s1182100 0.0 101810
06:00+13s1180100 0.0 101816
09:00+19sse3459100 0.0 1017392
12:00+22s3546100 0.0 10171119
15:00+21wsw1360100 0.0 1015133
18:00+17nw1186100 0.4 101690
21:00+15ese2396100 2.1 101590
6 august, fri
fri600:00+15ese2697100 1.1 1014252
03:00+15ese2796100 1.2 1013247
06:00+16se1296100 0.1 101290
09:00+16sse3795100 2.1 1012353
12:00+21sse5871100 1.1 1011574
15:00+25s485277 1.2 1009869
18:00+24ssw116289 0.0 100911
21:00+20ene3678100 0.2 1009116
7 august, sat
sat700:00+19ene5137678 0.0 1009320
03:00+16e388389 0.0 1009212
06:00+17se3794100 0.4 1009160
09:00+20sse4784100 1.5 1009275
12:00+27s465029 0.3 1009780
15:00+30s5741100 0.3 10092011
18:00+23nne117380 0.5 1010119
21:00+19e2281100 0.6 101015
8 august, sun
sun800:00+18e2281100 0.1 101025
03:00+18ese3982100 0.3 1010180
06:00+17sse3588100 0.1 1010118
09:00+18s2787100 0.2 1012226
12:00+18wnw2392100 0.6 101286
15:00+18nne1196100 2.7 1013103
18:00+19nne2292100 0.6 1013191
21:00+17wnw249798 1.0 1014105